QPF
0.01 0.01 0.01 0.01 0.02 0.04 0.05 0.04 0.05 0.04 0.04 0.06 0.06 0.06 0.08 0.07 0.06 0.07 0.07 0.07 0.06 0.07 0.08 0.10 0.08 0.07 0.07 0.06 0.06 0.07 0.07 0.07 0.06 0.08 0.08 0.06 0.05 0.04 0.05 0.05 0.05 0.03 0.04
0.00 0.00 0.01 0.01 0.01 0.02 0.02 0.02 0.02 0.03 0.03 0.05 0.05 0.05 0.06 0.07 0.07 0.07 0.08 0.08 0.07 0.10 0.11 0.09 0.07 0.06 0.06 0.05 0.05 0.06 0.07 0.06 0.06 0.07 0.09 0.09 0.09 0.07 0.04 0.05 0.05 0.05 0.06
0.00 0.00 0.00 0.01 0.01 0.02 0.02 0.02 0.01 0.02 0.02 0.03 0.02 0.03 0.05 0.06 0.06 0.06 0.07 0.06 0.07 0.08 0.07 0.06 0.06 0.05 0.04 0.05 0.05 0.05 0.05 0.06 0.06 0.06 0.08 0.11 0.13 0.10 0.08 0.06 0.07 0.07 0.07
0.00 0.00 0.00 0.00 0.01 0.01 0.01 0.01 0.00 0.01 0.01 0.01 0.01 0.02 0.04 0.04 0.05 0.06 0.06 0.05 0.04 0.04 0.03 0.05 0.06 0.05 0.04 0.06 0.04 0.04 0.04 0.04 0.05 0.05 0.05 0.06 0.08 0.10 0.10 0.10 0.09 0.07 0.06
0.00 0.00 0.00 0.00 0.00 0.00 0.00 0.00 0.00 0.01 0.01 0.01 0.01 0.02 0.03 0.04 0.04 0.05 0.05 0.05 0.05 0.04 0.03 0.03 0.05 0.06 0.06 0.06 0.05 0.05 0.05 0.05 0.05 0.05 0.06 0.06 0.07 0.07 0.08 0.12 0.11 0.08 0.07
0.00 0.00 0.00 0.00 0.00 0.00 0.00 0.00 0.00 0.01 0.01 0.01 0.01 0.01 0.02 0.02 0.03 0.06 0.06 0.04 0.05 0.05 0.04 0.02 0.04 0.06 0.07 0.07 0.06 0.05 0.04 0.04 0.05 0.04 0.04 0.06 0.07 0.08 0.09 0.09 0.09 0.09 0.08
0.00 0.00 0.00 0.00 0.00 0.00 0.00 0.00 0.00 0.00 0.00 0.01 0.01 0.01 0.01 0.02 0.02 0.03 0.05 0.04 0.04 0.04 0.04 0.03 0.03 0.04 0.06 0.06 0.06 0.06 0.06 0.06 0.05 0.05 0.03 0.04 0.05 0.06 0.08 0.08 0.09 0.09 0.08
0.00 0.00 0.00 0.00 0.00 0.00 0.00 0.00 0.01 0.01 0.00 0.00 0.01 0.01 0.01 0.01 0.02 0.02 0.02 0.04 0.03 0.03 0.03 0.02 0.02 0.03 0.03 0.04 0.07 0.05 0.05 0.06 0.05 0.03 0.04 0.05 0.05 0.06 0.08 0.08 0.09 0.10 0.10
0.00 0.00 0.00 0.00 0.00 0.00 0.00 0.00 0.01 0.01 0.00 0.00 0.01 0.01 0.01 0.01 0.01 0.01 0.01 0.02 0.03 0.04 0.04 0.03 0.03 0.04 0.05 0.05 0.06 0.06 0.05 0.05 0.04 0.04 0.06 0.06 0.05 0.05 0.07 0.09 0.08 0.09 0.09
0.00 0.00 0.01 0.01 0.01 0.00 0.00 0.00 0.01 0.00 0.00 0.00 0.01 0.01 0.01 0.01 0.01 0.01 0.01 0.01 0.02 0.03 0.03 0.03 0.03 0.05 0.06 0.05 0.05 0.06 0.05 0.05 0.06 0.06 0.05 0.05 0.04 0.05 0.07 0.07 0.07 0.07 0.08
0.00 0.00 0.01 0.01 0.00 0.01 0.01 0.00 0.00 0.00 0.00 0.01 0.01 0.01 0.01 0.00 0.01 0.01 0.01 0.01 0.02 0.04 0.04 0.04 0.04 0.05 0.06 0.07 0.07 0.06 0.06 0.05 0.05 0.05 0.05 0.04 0.04 0.05 0.05 0.06 0.07 0.07 0.07
0.00 0.00 0.00 0.01 0.01 0.01 0.01 0.00 0.00 0.00 0.00 0.00 0.00 0.00 0.01 0.01 0.01 0.01 0.01 0.01 0.02 0.03 0.05 0.04 0.04 0.04 0.06 0.08 0.07 0.06 0.05 0.04 0.04 0.04 0.04 0.03 0.04 0.05 0.05 0.05 0.04 0.05 0.06
0.00 0.00 0.01 0.01 0.02 0.03 0.03 0.01 0.00 0.00 0.00 0.00 0.00 0.01 0.01 0.01 0.01 0.02 0.02 0.03 0.03 0.04 0.05 0.04 0.05 0.06 0.06 0.07 0.07 0.05 0.04 0.03 0.02 0.03 0.03 0.03 0.04 0.04 0.04 0.03 0.03 0.04 0.05
0.01 0.01 0.02 0.03 0.04 0.05 0.04 0.03 0.01 0.01 0.01 0.01 0.01 0.02 0.02 0.02 0.02 0.03 0.04 0.04 0.04 0.04 0.04 0.03 0.04 0.05 0.05 0.04 0.04 0.03 0.03 0.03 0.03 0.03 0.04 0.04 0.04 0.04 0.03 0.03 0.03 0.03 0.04
0.02 0.02 0.02 0.01 0.02 0.03 0.04 0.03 0.02 0.01 0.02 0.02 0.02 0.03 0.03 0.02 0.03 0.03 0.04 0.04 0.04 0.04 0.04 0.03 0.03 0.04 0.04 0.04 0.03 0.03 0.03 0.04 0.04 0.04 0.05 0.05 0.04 0.03 0.03 0.02 0.02 0.02 0.03
0.02 0.02 0.02 0.01 0.02 0.02 0.03 0.03 0.02 0.02 0.03 0.03 0.03 0.04 0.03 0.03 0.03 0.03 0.03 0.03 0.04 0.05 0.04 0.04 0.03 0.05 0.06 0.05 0.04 0.04 0.04 0.06 0.05 0.05 0.05 0.04 0.03 0.02 0.02 0.01 0.01 0.01 0.02
0.02 0.03 0.02 0.01 0.02 0.04 0.06 0.04 0.03 0.02 0.02 0.02 0.02 0.02 0.02 0.03 0.03 0.02 0.02 0.03 0.04 0.04 0.04 0.04 0.04 0.04 0.06 0.05 0.04 0.04 0.05 0.06 0.06 0.04 0.03 0.02 0.01 0.02 0.02 0.02 0.02 0.01 0.02
0.02 0.02 0.02 0.01 0.01 0.01 0.02 0.02 0.01 0.01 0.01 0.00 0.01 0.01 0.02 0.02 0.02 0.03 0.03 0.03 0.04 0.04 0.04 0.04 0.03 0.03 0.04 0.04 0.03 0.03 0.04 0.05 0.04 0.01 0.01 0.02 0.02 0.02 0.03 0.03 0.02 0.02 0.02
0.00 0.00 0.01 0.01 0.01 0.01 0.00 0.01 0.00 0.01 0.01 0.01 0.01 0.01 0.01 0.01 0.02 0.03 0.03 0.04 0.05 0.05 0.04 0.04 0.04 0.05 0.04 0.02 0.01 0.02 0.02 0.02 0.02 0.02 0.02 0.02 0.02 0.04 0.04 0.03 0.02 0.02 0.03
0.00 0.00 0.01 0.01 0.01 0.03 0.02 0.01 0.01 0.01 0.01 0.01 0.01 0.01 0.02 0.02 0.03 0.03 0.04 0.04 0.05 0.05 0.05 0.04 0.04 0.04 0.05 0.02 0.01 0.02 0.02 0.02 0.03 0.03 0.02 0.02 0.02 0.02 0.02 0.02 0.02 0.02 0.03
0.01 0.01 0.01 0.01 0.01 0.01 0.02 0.02 0.01 0.01 0.02 0.01 0.02 0.02 0.02 0.03 0.03 0.04 0.05 0.05 0.04 0.04 0.04 0.04 0.04 0.05 0.04 0.03 0.02 0.03 0.02 0.03 0.02 0.02 0.02 0.01 0.01 0.01 0.01 0.01 0.02 0.02 0.02
0.01 0.01 0.01 0.00 0.00 0.01 0.01 0.01 0.02 0.01 0.01 0.01 0.01 0.01 0.02 0.02 0.02 0.03 0.04 0.04 0.04 0.04 0.05 0.05 0.04 0.05 0.05 0.05 0.04 0.03 0.03 0.02 0.01 0.01 0.01 0.01 0.01 0.01 0.01 0.01 0.01 0.02 0.02
0.01 0.01 0.01 0.01 0.01 0.00 0.00 0.01 0.02 0.03 0.02 0.02 0.02 0.02 0.02 0.03 0.03 0.03 0.03 0.03 0.03 0.03 0.04 0.04 0.05 0.07 0.07 0.06 0.04 0.03 0.02 0.02 0.01 0.01 0.01 0.00 0.01 0.01 0.01 0.01 0.02 0.01 0.01
0.02 0.02 0.02 0.02 0.01 0.01 0.01 0.01 0.03 0.04 0.04 0.04 0.04 0.03 0.03 0.03 0.03 0.03 0.02 0.02 0.03 0.03 0.04 0.05 0.06 0.06 0.06 0.04 0.03 0.02 0.02 0.02 0.01 0.01 0.01 0.00 0.01 0.01 0.01 0.01 0.02 0.02 0.02
0.02 0.02 0.02 0.03 0.02 0.02 0.02 0.02 0.03 0.04 0.05 0.05 0.06 0.05 0.04 0.03 0.03 0.03 0.04 0.04 0.05 0.04 0.05 0.06 0.05 0.04 0.03 0.03 0.03 0.03 0.03 0.02 0.02 0.02 0.01 0.01 0.02 0.01 0.01 0.02 0.02 0.03 0.04
0.02 0.01 0.01 0.01 0.01 0.02 0.03 0.04 0.04 0.04 0.05 0.05 0.06 0.06 0.04 0.04 0.03 0.02 0.02 0.03 0.02 0.02 0.02 0.03 0.04 0.03 0.03 0.03 0.03 0.04 0.05 0.05 0.05 0.03 0.03 0.03 0.02 0.02 0.02 0.02 0.02 0.02 0.02
MSLP
1007.57 1008.08 1008.53 1008.91 1009.22 1009.48 1009.70 1009.92 1010.12 1010.31 1010.47 1010.60 1010.67 1010.70 1010.68 1010.64 1010.61 1010.60 1010.62 1010.70 1010.81 1010.95 1011.10 1011.25 1011.38 1011.48 1011.57 1011.63 1011.69 1011.75 1011.79 1011.82 1011.82 1011.78 1011.68 1011.53 1011.33 1011.10 1010.86 1010.65 1010.49 1010.43 1010.48
1007.07 1007.67 1008.22 1008.70 1009.09 1009.41 1009.68 1009.92 1010.14 1010.34 1010.51 1010.65 1010.74 1010.78 1010.76 1010.71 1010.64 1010.59 1010.57 1010.60 1010.68 1010.80 1010.95 1011.10 1011.25 1011.38 1011.48 1011.55 1011.61 1011.65 1011.68 1011.70 1011.69 1011.66 1011.58 1011.46 1011.28 1011.06 1010.82 1010.58 1010.37 1010.23 1010.19
1006.49 1007.17 1007.81 1008.38 1008.86 1009.26 1009.58 1009.86 1010.11 1010.34 1010.55 1010.72 1010.84 1010.90 1010.90 1010.85 1010.76 1010.68 1010.62 1010.61 1010.65 1010.73 1010.86 1011.01 1011.16 1011.29 1011.40 1011.47 1011.52 1011.56 1011.58 1011.60 1011.61 1011.59 1011.55 1011.47 1011.34 1011.17 1010.95 1010.71 1010.48 1010.28 1010.14
1005.86 1006.59 1007.30 1007.96 1008.53 1009.00 1009.40 1009.73 1010.03 1010.31 1010.55 1010.77 1010.93 1011.03 1011.07 1011.04 1010.96 1010.87 1010.78 1010.73 1010.73 1010.78 1010.87 1011.00 1011.13 1011.25 1011.35 1011.42 1011.46 1011.49 1011.51 1011.54 1011.57 1011.59 1011.60 1011.58 1011.52 1011.40 1011.23 1011.01 1010.77 1010.53 1010.32
1005.21 1005.96 1006.73 1007.47 1008.12 1008.67 1009.14 1009.54 1009.90 1010.22 1010.52 1010.79 1011.00 1011.16 1011.24 1011.25 1011.20 1011.11 1011.02 1010.95 1010.91 1010.92 1010.98 1011.06 1011.16 1011.26 1011.34 1011.39 1011.42 1011.45 1011.47 1011.51 1011.56 1011.63 1011.69 1011.73 1011.74 1011.69 1011.58 1011.40 1011.17 1010.91 1010.65
1004.62 1005.37 1006.18 1006.97 1007.70 1008.33 1008.87 1009.34 1009.75 1010.13 1010.47 1010.79 1011.06 1011.26 1011.40 1011.45 1011.44 1011.38 1011.29 1011.21 1011.15 1011.12 1011.14 1011.18 1011.25 1011.31 1011.35 1011.39 1011.40 1011.42 1011.44 1011.49 1011.56 1011.66 1011.77 1011.87 1011.94 1011.95 1011.90 1011.77 1011.57 1011.31 1011.02
1004.20 1004.93 1005.75 1006.59 1007.37 1008.07 1008.68 1009.21 1009.67 1010.08 1010.46 1010.81 1011.11 1011.36 1011.54 1011.63 1011.66 1011.62 1011.55 1011.47 1011.40 1011.35 1011.33 1011.33 1011.35 1011.38 1011.39 1011.39 1011.39 1011.39 1011.41 1011.45 1011.53 1011.64 1011.78 1011.92 1012.03 1012.10 1012.11 1012.03 1011.87 1011.63 1011.35
1004.05 1004.75 1005.57 1006.43 1007.26 1008.01 1008.67 1009.24 1009.73 1010.17 1010.56 1010.91 1011.23 1011.48 1011.68 1011.80 1011.85 1011.83 1011.78 1011.71 1011.63 1011.57 1011.52 1011.49 1011.48 1011.46 1011.44 1011.41 1011.38 1011.36 1011.36 1011.39 1011.46 1011.57 1011.71 1011.86 1011.99 1012.09 1012.14 1012.10 1011.99 1011.79 1011.54
1004.25 1004.91 1005.72 1006.59 1007.44 1008.23 1008.92 1009.51 1010.02 1010.45 1010.83 1011.16 1011.45 1011.68 1011.86 1011.97 1012.03 1012.02 1011.98 1011.91 1011.84 1011.77 1011.71 1011.66 1011.61 1011.57 1011.51 1011.46 1011.40 1011.35 1011.32 1011.32 1011.36 1011.44 1011.56 1011.69 1011.83 1011.93 1011.99 1011.99 1011.92 1011.78 1011.58
1004.85 1005.48 1006.26 1007.12 1007.98 1008.77 1009.48 1010.08 1010.57 1010.98 1011.31 1011.59 1011.82 1012.00 1012.13 1012.20 1012.23 1012.21 1012.17 1012.10 1012.03 1011.96 1011.90 1011.84 1011.78 1011.71 1011.64 1011.55 1011.46 1011.38 1011.32 1011.28 1011.28 1011.32 1011.40 1011.49 1011.60 1011.68 1011.74 1011.76 1011.72 1011.62 1011.48
1005.82 1006.43 1007.18 1008.01 1008.85 1009.63 1010.32 1010.90 1011.37 1011.74 1012.02 1012.22 1012.37 1012.46 1012.51 1012.51 1012.49 1012.44 1012.38 1012.31 1012.24 1012.17 1012.11 1012.06 1011.99 1011.92 1011.83 1011.73 1011.62 1011.51 1011.41 1011.34 1011.29 1011.28 1011.30 1011.35 1011.40 1011.45 1011.49 1011.50 1011.48 1011.42 1011.32
1007.08 1007.66 1008.37 1009.15 1009.94 1010.69 1011.35 1011.90 1012.33 1012.65 1012.86 1012.98 1013.04 1013.03 1012.98 1012.90 1012.81 1012.71 1012.62 1012.53 1012.46 1012.41 1012.36 1012.32 1012.26 1012.19 1012.11 1012.00 1011.88 1011.75 1011.63 1011.52 1011.43 1011.38 1011.34 1011.34 1011.34 1011.35 1011.35 1011.34 1011.31 1011.26 1011.19
1008.49 1009.03 1009.68 1010.40 1011.12 1011.81 1012.43 1012.94 1013.33 1013.60 1013.75 1013.79 1013.76 1013.66 1013.51 1013.34 1013.17 1013.01 1012.88 1012.78 1012.71 1012.66 1012.64 1012.61 1012.58 1012.53 1012.45 1012.35 1012.23 1012.10 1011.96 1011.84 1011.73 1011.64 1011.57 1011.51 1011.47 1011.44 1011.40 1011.35 1011.30 1011.24 1011.17
1009.88 1010.38 1010.95 1011.59 1012.23 1012.85 1013.40 1013.87 1014.22 1014.45 1014.55 1014.54 1014.43 1014.25 1014.02 1013.77 1013.53 1013.32 1013.15 1013.03 1012.96 1012.93 1012.92 1012.92 1012.92 1012.89 1012.84 1012.76 1012.65 1012.52 1012.39 1012.26 1012.15 1012.04 1011.95 1011.88 1011.80 1011.73 1011.65 1011.56 1011.47 1011.38 1011.29
1011.10 1011.55 1012.05 1012.58 1013.13 1013.66 1014.16 1014.58 1014.89 1015.09 1015.17 1015.12 1014.97 1014.73 1014.44 1014.14 1013.84 1013.59 1013.39 1013.26 1013.19 1013.17 1013.19 1013.22 1013.25 1013.26 1013.23 1013.17 1013.09 1012.98 1012.86 1012.75 1012.64 1012.54 1012.45 1012.37 1012.28 1012.18 1012.07 1011.94 1011.81 1011.67 1011.53
1012.05 1012.45 1012.86 1013.30 1013.75 1014.20 1014.63 1015.00 1015.29 1015.48 1015.55 1015.49 1015.32 1015.07 1014.75 1014.41 1014.08 1013.81 1013.59 1013.46 1013.40 1013.40 1013.44 1013.51 1013.57 1013.60 1013.61 1013.57 1013.51 1013.42 1013.33 1013.23 1013.14 1013.06 1012.99 1012.91 1012.81 1012.70 1012.56 1012.40 1012.22 1012.03 1011.84
1012.70 1013.05 1013.39 1013.73 1014.09 1014.46 1014.83 1015.17 1015.44 1015.63 1015.70 1015.66 1015.51 1015.26 1014.94 1014.60 1014.27 1013.99 1013.78 1013.65 1013.61 1013.63 1013.70 1013.80 1013.88 1013.95 1013.97 1013.96 1013.91 1013.84 1013.76 1013.68 1013.60 1013.53 1013.47 1013.40 1013.31 1013.19 1013.04 1012.85 1012.63 1012.39 1012.15
1013.07 1013.39 1013.67 1013.95 1014.23 1014.54 1014.85 1015.16 1015.42 1015.62 1015.72 1015.70 1015.58 1015.37 1015.08 1014.77 1014.46 1014.20 1014.01 1013.90 1013.88 1013.93 1014.03 1014.14 1014.25 1014.33 1014.37 1014.36 1014.31 1014.24 1014.15 1014.07 1013.99 1013.92 1013.86 1013.79 1013.70 1013.57 1013.41 1013.20 1012.95 1012.67 1012.39
1013.27 1013.58 1013.83 1014.06 1014.30 1014.55 1014.83 1015.11 1015.37 1015.58 1015.71 1015.74 1015.66 1015.50 1015.26 1014.99 1014.73 1014.50 1014.35 1014.28 1014.28 1014.36 1014.48 1014.62 1014.74 1014.82 1014.86 1014.84 1014.77 1014.67 1014.56 1014.44 1014.33 1014.24 1014.15 1014.06 1013.95 1013.82 1013.64 1013.41 1013.14 1012.84 1012.53
1013.40 1013.74 1013.99 1014.21 1014.42 1014.65 1014.90 1015.17 1015.43 1015.65 1015.80 1015.87 1015.85 1015.74 1015.56 1015.35 1015.15 1014.97 1014.87 1014.83 1014.87 1014.98 1015.12 1015.27 1015.39 1015.47 1015.49 1015.44 1015.34 1015.19 1015.02 1014.84 1014.67 1014.52 1014.38 1014.24 1014.10 1013.94 1013.74 1013.50 1013.22 1012.91 1012.58
1013.59 1013.97 1014.25 1014.48 1014.69 1014.91 1015.15 1015.41 1015.67 1015.89 1016.07 1016.18 1016.20 1016.15 1016.04 1015.89 1015.75 1015.64 1015.58 1015.59 1015.67 1015.80 1015.96 1016.11 1016.23 1016.30 1016.29 1016.20 1016.04 1015.82 1015.57 1015.31 1015.06 1014.82 1014.60 1014.40 1014.21 1014.00 1013.78 1013.53 1013.24 1012.93 1012.59
1013.90 1014.34 1014.67 1014.93 1015.15 1015.38 1015.61 1015.86 1016.11 1016.34 1016.53 1016.66 1016.73 1016.73 1016.68 1016.60 1016.51 1016.46 1016.45 1016.51 1016.61 1016.77 1016.94 1017.09 1017.20 1017.25 1017.20 1017.06 1016.84 1016.56 1016.22 1015.86 1015.51 1015.18 1014.87 1014.59 1014.33 1014.08 1013.82 1013.55 1013.26 1012.96 1012.64
1014.37 1014.86 1015.24 1015.53 1015.78 1016.01 1016.24 1016.47 1016.71 1016.93 1017.13 1017.27 1017.37 1017.41 1017.41 1017.38 1017.35 1017.35 1017.39 1017.48 1017.61 1017.78 1017.95 1018.10 1018.20 1018.21 1018.13 1017.95 1017.68 1017.32 1016.91 1016.47 1016.02 1015.59 1015.19 1014.84 1014.51 1014.21 1013.93 1013.65 1013.37 1013.07 1012.77
1014.95 1015.49 1015.90 1016.23 1016.49 1016.72 1016.94 1017.15 1017.37 1017.57 1017.75 1017.90 1018.01 1018.08 1018.11 1018.13 1018.15 1018.18 1018.25 1018.37 1018.52 1018.69 1018.86 1018.99 1019.07 1019.07 1018.96 1018.75 1018.43 1018.02 1017.55 1017.04 1016.53 1016.03 1015.57 1015.15 1014.78 1014.44 1014.14 1013.86 1013.59 1013.31 1013.03
1015.59 1016.15 1016.59 1016.92 1017.19 1017.41 1017.60 1017.79 1017.97 1018.14 1018.30 1018.44 1018.54 1018.62 1018.68 1018.72 1018.77 1018.83 1018.92 1019.04 1019.19 1019.35 1019.51 1019.63 1019.69 1019.67 1019.54 1019.31 1018.97 1018.55 1018.05 1017.51 1016.97 1016.44 1015.94 1015.50 1015.10 1014.76 1014.46 1014.19 1013.94 1013.69 1013.43
1016.22 1016.77 1017.20 1017.53 1017.78 1017.98 1018.14 1018.28 1018.42 1018.55 1018.67 1018.78 1018.87 1018.94 1019.00 1019.06 1019.12 1019.19 1019.29 1019.40 1019.54 1019.69 1019.82 1019.92 1019.96 1019.92 1019.78 1019.55 1019.22 1018.80 1018.32 1017.80 1017.27 1016.75 1016.26 1015.83 1015.45 1015.13 1014.86 1014.61 1014.39 1014.17 1013.94
Thickness
5836 5835 5832 5829 5823 5818 5814 5811 5807 5806 5804 5802 5799 5797 5796 5797 5797 5796 5795 5793 5792 5791 5789 5789 5788 5787 5785 5784 5783 5781 5778 5777 5778 5773 5769 5772 5776 5774 5773 5771 5769 5766 5764
5836 5835 5833 5830 5825 5820 5816 5812 5809 5807 5805 5804 5802 5801 5800 5799 5799 5798 5796 5794 5793 5791 5791 5789 5788 5788 5786 5784 5784 5781 5777 5777 5778 5771 5764 5760 5763 5768 5773 5770 5767 5765 5763
5840 5836 5834 5832 5829 5823 5819 5817 5813 5810 5808 5807 5805 5803 5801 5799 5798 5796 5795 5795 5794 5793 5792 5790 5790 5789 5788 5784 5783 5781 5778 5774 5776 5776 5768 5758 5753 5758 5765 5767 5766 5764 5762
5849 5843 5839 5835 5833 5829 5825 5821 5816 5813 5810 5808 5806 5801 5797 5795 5796 5797 5796 5796 5795 5794 5793 5792 5791 5789 5788 5786 5785 5783 5781 5777 5773 5774 5774 5771 5765 5755 5752 5758 5763 5763 5761
5856 5849 5845 5841 5839 5835 5830 5824 5819 5815 5812 5810 5808 5804 5801 5800 5800 5799 5797 5796 5796 5795 5794 5793 5791 5790 5789 5787 5785 5784 5782 5780 5776 5773 5772 5770 5767 5763 5753 5749 5754 5757 5759
5863 5856 5852 5847 5843 5840 5834 5828 5821 5816 5814 5812 5809 5806 5802 5800 5798 5797 5796 5796 5796 5796 5796 5794 5792 5791 5789 5787 5785 5783 5782 5780 5777 5775 5773 5769 5764 5760 5756 5751 5750 5750 5754
5865 5858 5852 5847 5843 5840 5836 5831 5824 5818 5816 5813 5810 5808 5805 5802 5799 5798 5797 5796 5796 5795 5795 5795 5793 5791 5789 5788 5786 5783 5781 5780 5777 5774 5773 5771 5769 5766 5761 5754 5750 5749 5751
5867 5861 5857 5851 5846 5843 5839 5834 5826 5821 5818 5815 5812 5811 5808 5805 5803 5801 5800 5798 5798 5797 5797 5795 5793 5791 5790 5788 5786 5783 5781 5779 5777 5775 5773 5770 5769 5768 5763 5757 5750 5744 5745
5867 5864 5860 5855 5850 5846 5841 5837 5830 5824 5821 5818 5814 5811 5810 5807 5805 5803 5802 5800 5800 5799 5798 5796 5793 5791 5789 5787 5785 5781 5779 5778 5776 5773 5772 5768 5768 5767 5764 5760 5755 5745 5738
5867 5865 5862 5858 5853 5849 5844 5840 5833 5827 5823 5820 5817 5814 5811 5809 5806 5804 5801 5800 5799 5799 5797 5795 5793 5791 5788 5786 5784 5781 5780 5776 5774 5772 5769 5767 5765 5764 5762 5759 5756 5752 5743
5864 5862 5860 5859 5855 5850 5845 5839 5834 5828 5823 5821 5818 5815 5811 5809 5807 5804 5802 5800 5798 5797 5795 5793 5791 5789 5787 5785 5782 5780 5778 5774 5771 5770 5767 5764 5763 5760 5759 5757 5755 5751 5746
5865 5862 5859 5855 5851 5847 5843 5838 5834 5828 5824 5821 5817 5814 5811 5809 5806 5804 5802 5800 5797 5796 5793 5791 5789 5787 5785 5783 5779 5776 5774 5771 5768 5767 5764 5762 5761 5757 5755 5753 5751 5748 5746
5859 5857 5854 5850 5846 5843 5840 5836 5833 5829 5825 5821 5816 5812 5810 5807 5804 5803 5802 5800 5797 5794 5791 5788 5785 5783 5781 5779 5777 5774 5771 5770 5768 5765 5762 5760 5757 5753 5751 5749 5747 5745 5743
5849 5848 5847 5844 5842 5839 5835 5832 5829 5828 5825 5820 5815 5811 5808 5806 5804 5802 5800 5798 5795 5792 5789 5786 5783 5781 5779 5777 5774 5771 5768 5766 5765 5763 5760 5757 5753 5749 5746 5744 5742 5740 5736
5839 5839 5838 5838 5836 5834 5830 5828 5826 5824 5821 5817 5813 5809 5808 5806 5803 5800 5798 5795 5793 5790 5787 5784 5781 5779 5776 5774 5771 5768 5766 5763 5761 5759 5756 5754 5751 5747 5744 5740 5737 5734 5731
5830 5831 5831 5831 5829 5828 5825 5823 5821 5820 5817 5812 5809 5808 5805 5802 5800 5798 5795 5792 5789 5786 5783 5780 5777 5774 5772 5769 5767 5764 5762 5760 5756 5753 5751 5750 5747 5744 5740 5736 5733 5730 5726
5823 5824 5824 5824 5824 5824 5822 5818 5816 5814 5812 5808 5806 5804 5801 5798 5796 5795 5791 5788 5785 5782 5778 5775 5772 5769 5766 5764 5761 5759 5758 5755 5751 5749 5746 5745 5743 5739 5735 5731 5728 5725 5722
5816 5816 5817 5818 5820 5821 5819 5816 5814 5810 5806 5802 5800 5799 5796 5793 5791 5788 5785 5782 5780 5777 5774 5770 5768 5764 5761 5758 5755 5753 5752 5750 5747 5743 5740 5737 5734 5732 5728 5726 5722 5720 5717
5811 5812 5814 5815 5814 5812 5812 5810 5807 5804 5800 5797 5795 5794 5792 5788 5785 5782 5779 5777 5774 5771 5768 5765 5762 5758 5755 5751 5748 5745 5745 5743 5741 5738 5734 5730 5727 5724 5722 5719 5715 5713 5712
5806 5806 5807 5807 5805 5804 5803 5801 5798 5795 5792 5791 5790 5789 5786 5782 5779 5776 5774 5772 5769 5765 5762 5759 5756 5752 5748 5744 5741 5738 5737 5735 5733 5730 5727 5724 5721 5718 5715 5711 5709 5705 5704
5797 5798 5796 5794 5795 5796 5794 5789 5788 5786 5787 5786 5784 5782 5779 5776 5773 5770 5768 5764 5761 5758 5754 5751 5748 5745 5742 5738 5734 5731 5728 5726 5724 5722 5720 5718 5714 5711 5708 5705 5702 5700 5698
5785 5786 5784 5783 5785 5786 5783 5779 5777 5779 5780 5778 5775 5772 5770 5768 5766 5762 5759 5756 5752 5748 5745 5741 5739 5737 5734 5730 5726 5723 5720 5717 5715 5714 5712 5710 5707 5704 5701 5698 5696 5694 5691
5772 5774 5772 5771 5772 5773 5771 5768 5768 5770 5769 5767 5764 5762 5761 5758 5756 5753 5749 5746 5743 5740 5736 5733 5729 5726 5725 5721 5719 5715 5712 5710 5707 5707 5704 5702 5699 5696 5693 5691 5689 5685 5683
5759 5761 5760 5759 5759 5761 5760 5759 5759 5759 5757 5754 5753 5752 5750 5747 5745 5743 5740 5737 5733 5730 5727 5723 5720 5717 5714 5712 5710 5707 5704 5701 5698 5696 5694 5692 5690 5688 5686 5684 5681 5678 5675
5746 5748 5747 5747 5747 5749 5749 5749 5749 5748 5745 5743 5741 5740 5739 5737 5734 5730 5727 5726 5723 5722 5717 5715 5712 5708 5704 5702 5700 5698 5695 5692 5689 5685 5683 5683 5681 5679 5678 5676 5674 5671 5668
5734 5735 5735 5735 5736 5737 5737 5737 5737 5737 5733 5730 5729 5728 5728 5726 5724 5719 5714 5712 5711 5709 5707 5705 5702 5699 5695 5692 5689 5687 5684 5681 5678 5674 5673 5672 5671 5670 5668 5668 5665 5662 5659